CAPE
0 0 0 0 0 0 1 0 0 1 2 1 3 2 2 3 4 7 2 0 1 3 2 3 1 2 0 0 0 0 0 0 0 0 0 0 0 0 0 0 0 0 0 0 0 0 0 0 0 0 0 1 99 213
1 0 0 0 0 0 0 0 0 1 2 2 3 3 3 4 4 9 2 1 0 6 0 0 0 0 0 0 0 0 0 0 0 0 0 0 0 0 0 0 0 0 0 0 0 0 0 0 0 0 0 15 266 435
1 0 0 1 0 0 0 0 0 2 2 2 3 3 3 1 3 7 2 9 4 1 0 0 0 0 0 0 0 1 0 0 0 0 0 0 0 0 0 0 0 0 0 0 0 0 0 0 0 0 6 99 424 661
1 1 0 1 1 1 0 0 0 0 1 3 2 3 3 2 2 5 4 4 3 2 1 0 0 0 0 0 0 0 0 0 0 0 0 0 0 0 3 0 0 0 0 0 0 0 0 0 0 1 91 462 824 1033
2 1 1 1 1 1 1 0 0 1 1 3 2 3 3 2 2 4 1 4 4 1 3 0 0 0 0 0 0 0 0 0 0 0 0 0 0 0 0 0 0 0 0 0 0 0 0 0 39 187 630 1040 1005 819
2 1 1 1 1 2 2 2 1 2 2 2 1 1 2 2 4 2 2 0 2 3 1 0 0 0 0 0 0 0 0 0 0 0 0 0 0 0 0 0 0 0 0 0 0 0 0 143 211 198 624 908 788 299
2 2 2 2 2 2 2 2 1 0 1 3 2 1 2 2 4 0 0 0 2 4 1 1 0 0 0 0 0 0 0 0 0 0 0 0 0 0 0 0 0 0 0 0 0 1 72 184 100 236 134 129 186 262
2 2 1 2 1 0 1 1 0 0 1 2 1 1 0 1 2 2 1 0 2 1 2 2 0 0 10 45 0 0 0 0 0 0 0 0 0 0 0 0 0 0 0 0 0 0 67 62 213 349 403 343 281 206
2 1 2 2 2 2 1 2 2 0 0 0 0 0 2 1 1 1 3 3 0 1 1 3 4 0 0 0 17 0 0 0 0 0 0 0 0 0 0 0 0 0 0 0 0 56 157 155 200 293 373 380 426 391
2 2 2 2 2 2 2 3 1 2 0 0 0 0 0 2 0 0 1 1 1 1 1 1 0 0 0 0 0 1 0 0 0 0 0 0 0 0 0 0 0 0 0 0 0 0 0 1 81 160 310 462 645 569
3 2 0 0 2 2 2 1 2 1 0 0 0 0 0 0 0 1 15 1 1 1 1 0 2 2 2 0 0 5 21 13 4 1 0 0 0 0 0 0 0 0 0 0 0 0 0 0 0 1 0 35 223 415
2 0 0 0 1 2 2 1 3 0 0 0 0 0 1 1 2 2 4 8 0 5 4 2 2 0 0 0 14 27 10 46 48 0 0 0 0 0 0 0 0 0 0 0 0 0 0 0 0 0 0 0 0 9
0 0 0 1 2 2 2 3 1 0 1 0 1 0 0 0 1 7 2 3 7 0 1 26 3 31 9 1 5 2 17 33 14 16 1 75 116 39 0 0 0 0 0 4 23 22 3 0 0 0 0 0 0 0
0 0 0 1 2 2 2 0 0 0 0 0 2 0 0 3 1 9 2 12 18 29 24 13 9 17 27 9 8 0 0 10 20 23 41 113 53 39 40 24 13 0 13 53 74 61 11 0 0 0 0 0 0 0
2 1 2 2 0 0 0 0 0 0 0 0 4 1 0 11 0 0 8 11 3 0 1 3 10 2 3 7 0 0 6 4 12 33 72 37 45 59 44 24 17 37 50 51 28 15 9 0 0 0 0 0 0 0
3 2 1 1 0 0 0 0 0 0 1 0 0 0 0 0 0 0 2 3 0 0 0 5 4 11 1 5 0 3 6 16 36 17 17 32 33 25 17 10 10 4 8 4 0 0 0 0 0 0 0 0 0 0
4 1 0 0 0 0 0 0 0 1 0 2 0 0 0 0 0 0 0 0 2 3 0 1 4 6 9 8 8 12 6 0 1 2 14 2 13 28 10 3 0 0 0 0 0 0 0 0 0 0 0 0 0 0
0 0 1 1 1 0 0 0 1 2 6 2 0 0 1 2 0 0 0 0 0 0 0 0 0 3 4 2 3 1 1 0 1 13 3 4 1 2 0 0 0 0 0 0 0 0 0 0 0 0 0 0 0 0
1 2 2 2 2 0 0 0 1 5 4 5 5 4 0 0 0 0 0 0 0 0 0 0 0 5 6 4 1 3 2 4 2 24 22 0 0 0 0 0 0 0 0 0 0 0 0 0 0 0 0 0 0 0
0 0 0 0 2 0 0 1 3 5 3 0 0 0 0 0 0 0 0 0 0 0 0 0 0 10 19 0 1 1 0 2 1 32 43 24 11 1 0 0 0 0 0 0 0 0 0 0 0 0 0 0 0 0
0 0 1 0 1 1 1 0 0 0 0 0 0 0 0 0 0 0 0 0 0 0 0 0 0 2 26 0 2 5 0 2 0 0 4 4 23 37 11 0 0 0 0 0 0 0 0 0 0 0 0 0 0 0
0 0 0 8 6 7 2 1 0 0 0 0 0 0 0 0 0 0 0 0 0 0 0 0 0 0 0 0 0 0 0 0 0 0 0 1 29 43 33 29 8 3 1 1 2 3 0 0 0 0 0 0 0 0
0 0 0 2 7 1 0 0 0 0 0 0 0 0 0 7 2 0 4 0 0 9 27 2 0 0 0 0 0 0 5 1 0 0 0 0 0 2 33 43 56 65 39 46 32 24 10 0 0 0 0 3 0 0
0 0 2 1 3 0 0 0 0 0 0 0 0 1 0 2 0 12 5 1 2 8 19 5 6 9 7 12 23 20 17 12 0 0 0 1 21 7 0 0 0 6 20 22 22 19 12 0 0 0 11 12 19 22
0 0 0 0 0 0 0 1 1 0 4 0 1 0 3 0 4 0 1 0 0 1 0 0 0 3 0 1 0 0 0 8 30 15 0 0 0 0 0 0 0 0 0 23 34 45 43 17 7 4 0 11 24 25
0 0 0 0 1 0 1 2 0 0 0 0 0 0 0 1 1 0 0 0 0 0 0 0 0 0 11 18 0 0 0 0 0 0 0 0 0 0 0 0 0 0 0 6 40 51 40 27 27 28 25 6 5 12
0 0 0 0 0 4 3 0 0 0 0 1 0 0 0 0 8 2 0 0 0 0 0 0 0 2 16 20 4 3 0 0 1 0 0 0 0 0 0 0 0 0 0 1 18 39 39 21 14 29 39 44 31 30
0 0 0 6 6 1 0 0 0 0 0 0 0 0 0 0 0 0 0 0 0 0 0 1 12 27 30 30 11 3 4 0 0 0 0 0 0 0 0 0 0 0 0 0 1 52 38 37 16 18 24 37 55 53
0 0 0 0 0 0 0 0 0 0 0 0 0 0 0 0 0 0 0 0 1 1 0 19 40 30 2 8 6 3 2 1 1 1 0 2 0 0 0 0 0 0 0 0 0 27 91 51 40 38 16 17 22 40
0 0 1 2 1 0 0 0 0 0 0 0 0 0 0 0 0 0 0 0 1 3 6 6 26 7 8 13 14 9 9 0 1 5 6 4 0 3 22 28 57 51 8 20 32 23 3 17 6 6 12 22 47 77
0 0 1 2 2 0 0 0 0 0 0 0 0 0 0 0 0 0 0 2 9 18 16 19 10 16 16 7 9 32 38 17 0 0 0 0 0 0 50 50 26 61 57 14 32 42 12 7 21 28 16 18 56 24
0 0 0 0 0 0 0 0 0 0 0 4 19 1 3 4 0 0 3 0 3 0 0 0 6 14 1 0 0 0 0 0 4 107 47 0 0 1 61 51 12 49 67 59 58 82 81 79 83 52 41 46 52 132
0 0 0 0 0 0 0 0 0 5 11 3 1 3 24 15 5 1 0 0 0 0 0 0 0 7 25 14 20 26 20 12 0 0 0 0 0 11 56 75 19 5 5 9 10 23 22 55 87 119 135 115 98 91
CIN
-0 -0 -0 -0 -0 -0 -0 -0 -0 -0 -0 -0 -0 -0 -0 -1 -3 -0 -5 -8 -0 -0 -0 -0 -0 -0 -0 -0 -0 -0 -0 -0 -0 -0 -0 -0 -0 -0 -0 -0 -0 -0 -0 -0 -0 -0 -0 -0 -0 -0 -0 -80 -145 -173
-0 -0 -0 -0 -0 -0 -0 -0 -0 -0 -0 -0 -0 -0 -0 -1 -3 -0 -0 -9 -8 -0 -0 -0 -0 -0 -0 -0 -0 -0 -0 -0 -0 -0 -0 -0 -0 -0 -0 -0 -0 -0 -0 -0 -0 -0 -0 -0 -0 -0 -0 -145 -190 -252
-0 -0 -0 -0 -0 -0 -0 -0 -0 -0 -0 -0 -0 -0 -0 -0 -2 -0 -0 -0 -0 -0 -0 -0 -0 -0 -0 -0 -0 -0 -0 -0 -0 -0 -0 -0 -0 -0 -0 -0 -0 -0 -0 -0 -0 -0 -0 -0 -0 -0 -321 -230 -263 -345
-0 -0 -0 -0 -0 -0 -0 -0 -0 -0 -0 -0 -0 -0 -0 -0 -0 -1 -1 -0 -0 -0 -0 -0 -0 -0 -0 -0 -0 -0 -0 -0 -0 -0 -0 -0 -0 -0 -45 -0 -0 -0 -0 -0 -0 -0 -0 -0 -0 -49 -301 -330 -320 -385
-0 -0 -0 -0 -0 -0 -0 -0 -0 -0 -0 -0 -0 -0 -0 -0 -0 -0 -1 -0 -0 -0 -0 -0 -0 -0 -0 -0 -0 -0 -0 -0 -0 -0 -0 -0 -0 -0 -0 -0 -0 -0 -0 -0 -0 -0 -0 -0 -208 -339 -270 -256 -307 -321
-0 -0 -0 -0 -0 -0 -0 -0 -0 -0 -0 -0 -0 -0 -0 -0 -0 -0 -0 -0 -0 -0 -0 -0 -0 -0 -0 -0 -0 -0 -0 -0 -0 -0 -0 -0 -0 -0 -0 -0 -0 -0 -0 -0 -0 -0 -0 -195 -226 -290 -244 -216 -251 -309
-0 -0 -0 -0 -0 -0 -0 -0 -0 -0 -0 -0 -0 -0 -0 -1 -0 -0 -0 -0 -0 -0 -0 -0 -0 -0 -0 -0 -0 -0 -0 -0 -0 -0 -0 -0 -0 -0 -0 -0 -0 -0 -0 -0 -0 -12 -133 -122 -123 -181 -196 -279 -347 -353
-0 -0 -0 -0 -0 -0 -0 -0 -0 -0 -0 -0 -0 -0 -0 -0 -0 -0 -0 -0 -0 -0 -0 -5 -0 -0 -45 -23 -0 -0 -0 -0 -0 -0 -0 -0 -0 -0 -0 -0 -0 -0 -0 -0 -0 -0 -123 -163 -158 -180 -205 -199 -171 -211
-0 -0 -0 -0 -0 -0 -0 -0 -0 -0 -0 -0 -0 -0 -0 -0 -0 -0 -0 -0 -0 -0 -1 -0 -0 -10 -0 -0 -19 -0 -0 -0 -0 -0 -0 -0 -0 -0 -0 -0 -0 -0 -0 -0 -0 -138 -102 -80 -120 -137 -120 -123 -104 -143
-0 -0 -0 -0 -0 -0 -0 -0 -0 -0 -0 -0 -0 -0 -0 -0 -0 -0 -0 -0 -0 -0 -0 -0 -0 -0 -0 -0 -0 -0 -0 -0 -0 -0 -0 -0 -0 -0 -0 -0 -0 -0 -0 -0 -0 -0 -0 -54 -81 -103 -109 -133 -137 -151
-0 -0 -0 -0 -0 -0 -0 -0 -0 -0 -0 -0 -0 -0 -0 -0 -0 -0 -1 -0 -0 -0 -0 -0 -0 -0 -2 -0 -3 -8 -11 -37 -13 -86 -0 -0 -0 -0 -0 -0 -0 -0 -0 -0 -0 -0 -0 -0 -0 -94 -94 -153 -217 -200
-0 -0 -0 -0 -0 -0 -0 -0 -0 -0 -0 -0 -0 -0 -0 -0 -6 -1 -0 -0 -0 -0 -0 -1 -2 -0 -1 -0 -2 -3 -11 -15 -5 -0 -0 -0 -0 -0 -0 -0 -0 -0 -0 -0 -0 -0 -0 -11 -0 -0 -0 -0 -0 -352
-0 -0 -0 -6 -0 -0 -0 -0 -0 -0 -0 -0 -0 -0 -0 -0 -2 -2 -0 -0 -0 -0 -4 -1 -0 -2 -17 -12 -3 -1 -0 -1 -44 -31 -13 -25 -111 -250 -0 -0 -0 -0 -0 -133 -203 -184 -160 -0 -0 -0 -0 -0 -0 -0
-0 -0 -1 -0 -0 -0 -0 -0 -0 -0 -0 -0 -1 -0 -1 -5 -0 -0 -0 -0 -0 -0 -0 -3 -1 -1 -1 -3 -6 -0 -4 -7 -12 -7 -17 -99 -163 -234 -298 -311 -308 -33 -248 -179 -208 -219 -95 -3 -0 -0 -0 -0 -0 -0
-8 -6 -0 -0 -0 -0 -0 -0 -0 -0 -0 -0 -0 -0 -6 -0 -0 -0 -1 -1 -2 -0 -0 -0 -5 -4 -8 -2 -5 -0 -0 -3 -7 -17 -101 -157 -190 -205 -281 -344 -349 -295 -239 -223 -243 -231 -188 -0 -0 -0 -0 -0 -0 -0
-1 -3 -1 -0 -0 -0 -0 -0 -0 -0 -0 -0 -0 -0 -0 -0 -5 -0 -5 -1 -1 -0 -0 -0 -2 -0 -1 -1 -0 -0 -0 -4 -34 -105 -157 -160 -183 -215 -244 -274 -291 -304 -266 -261 -0 -0 -0 -0 -0 -0 -0 -0 -0 -0
-2 -0 -0 -0 -0 -20 -0 -0 -0 -0 -0 -0 -0 -0 -0 -0 -0 -0 -1 -2 -11 -5 -0 -0 -0 -0 -2 -1 -0 -1 -1 -0 -0 -15 -74 -66 -78 -120 -167 -221 -0 -0 -0 -0 -0 -0 -0 -0 -0 -0 -0 -0 -0 -0
-0 -0 -0 -0 -0 -0 -0 -0 -0 -0 -0 -4 -0 -1 -3 -18 -0 -0 -0 -0 -0 -0 -4 -1 -0 -0 -0 -0 -0 -0 -4 -17 -5 -19 -42 -42 -50 -84 -44 -0 -0 -0 -0 -0 -0 -0 -0 -0 -0 -0 -0 -0 -0 -0
-0 -16 -38 -0 -0 -0 -0 -0 -0 -0 -14 -18 -8 -14 -0 -0 -0 -0 -0 -0 -0 -1 -0 -0 -1 -1 -1 -0 -0 -0 -0 -0 -19 -12 -20 -0 -0 -0 -0 -0 -0 -0 -0 -0 -0 -0 -0 -0 -0 -0 -0 -0 -0 -0
-0 -0 -0 -0 -0 -0 -17 -1 -10 -4 -10 -0 -0 -0 -0 -0 -0 -0 -0 -0 -0 -0 -0 -0 -0 -6 -1 -6 -2 -0 -0 -0 -0 -1 -11 -8 -18 -33 -0 -0 -0 -16 -0 -0 -0 -0 -0 -0 -0 -0 -0 -0 -0 -0
-0 -0 -0 -0 -0 -0 -0 -8 -0 -0 -0 -0 -0 -0 -0 -0 -0 -0 -0 -0 -0 -0 -0 -0 -0 -30 -10 -0 -27 -31 -27 -0 -0 -0 -19 -21 -33 -29 -38 -0 -0 -0 -0 -0 -0 -0 -0 -0 -0 -0 -0 -0 -0 -0
-0 -0 -0 -19 -15 -2 -8 -0 -0 -0 -0 -0 -0 -0 -0 -0 -0 -0 -0 -0 -0 -0 -0 -0 -0 -0 -0 -0 -0 -1 -0 -0 -0 -0 -0 -34 -20 -23 -15 -18 -5 -3 -5 -6 -6 -3 -0 -0 -0 -0 -0 -0 -0 -0
-0 -0 -2 -30 -2 -2 -0 -0 -0 -0 -0 -0 -0 -0 -0 -7 -8 -0 -8 -10 -0 -9 -32 -30 -0 -0 -0 -0 -0 -0 -47 -28 -0 -0 -0 -0 -0 -25 -34 -28 -22 -12 -11 -18 -33 -30 -29 -2 -0 -0 -0 -19 -0 -0
-0 -0 -13 -4 -0 -0 -0 -0 -0 -0 -0 -0 -0 -0 -2 -7 -2 -10 -11 -0 -20 -16 -15 -6 -40 -19 -27 -18 -11 -18 -29 -34 -3 -0 -0 -11 -17 -32 -0 -0 -0 -41 -32 -37 -41 -40 -54 -0 -0 -0 -34 -29 -26 -26
-0 -0 -0 -0 -0 -0 -0 -0 -0 -2 -0 -0 -0 -0 -1 -11 -2 -0 -0 -0 -0 -9 -0 -0 -0 -60 -35 -28 -0 -0 -0 -33 -15 -14 -0 -0 -0 -0 -0 -0 -0 -0 -0 -31 -38 -35 -36 -49 -49 -45 -0 -28 -19 -21
-0 -0 -0 -0 -1 -0 -1 -0 -0 -0 -0 -0 -0 -0 -0 -7 -0 -6 -7 -0 -0 -0 -0 -0 -0 -0 -28 -12 -8 -0 -11 -0 -0 -0 -0 -0 -0 -0 -0 -0 -0 -0 -0 -39 -29 -32 -40 -48 -43 -37 -29 -34 -38 -24
-0 -3 -0 -0 -0 -8 -4 -0 -0 -0 -0 -4 -0 -0 -0 -2 -0 -5 -0 -0 -0 -0 -0 -0 -0 -43 -25 -34 -65 -70 -0 -0 -52 -0 -0 -0 -0 -0 -0 -0 -0 -0 -0 -18 -50 -53 -45 -57 -56 -51 -43 -31 -42 -29
-0 -0 -0 -1 -1 -2 -0 -0 -0 -0 -0 -0 -0 -0 -0 -0 -0 -0 -0 -0 -0 -0 -0 -32 -41 -26 -31 -43 -68 -88 -113 -65 -15 -0 -0 -0 -0 -0 -0 -0 -0 -0 -0 -0 -77 -54 -60 -55 -66 -62 -56 -46 -34 -48
-0 -0 -0 -0 -0 -0 -0 -0 -0 -0 -0 -0 -0 -0 -0 -0 -0 -0 -0 -0 -0 -0 -0 -20 -13 -31 -58 -89 -106 -92 -106 -93 -53 -20 -0 -1 -0 -0 -0 -0 -0 -0 -0 -0 -11 -94 -53 -61 -58 -73 -62 -56 -86 -78
-0 -0 -0 -0 -0 -0 -0 -0 -0 -0 -0 -0 -0 -0 -0 -0 -0 -0 -0 -0 -0 -4 -34 -55 -34 -53 -38 -28 -21 -27 -32 -0 -70 -28 -18 -8 -0 -18 -51 -55 -44 -41 -53 -53 -43 -55 -95 -89 -76 -34 -47 -37 -46 -54
-0 -0 -0 -0 -0 -0 -0 -0 -0 -0 -0 -0 -0 -0 -0 -16 -0 -0 -4 -47 -19 -10 -20 -21 -27 -34 -26 -32 -13 -3 -12 -31 -8 -0 -0 -0 -0 -0 -44 -58 -72 -76 -74 -66 -50 -38 -43 -41 -31 -41 -25 -22 -35 -79
-0 -0 -0 -0 -0 -0 -0 -0 -0 -0 -0 -38 -26 -60 -41 -30 -3 -20 -50 -0 -64 -7 -4 -0 -65 -63 -50 -0 -0 -0 -3 -2 -1 -3 -37 -0 -0 -15 -60 -70 -102 -82 -66 -71 -49 -45 -46 -32 -28 -32 -30 -44 -68 -69
-0 -0 -0 -0 -0 -0 -0 -0 -0 -12 -9 -5 -5 -6 -8 -6 -4 -7 -0 -0 -0 -0 -0 -0 -0 -130 -105 -79 -79 -68 -60 -54 -9 -0 -0 -0 -0 -67 -67 -73 -92 -106 -80 -88 -79 -70 -56 -42 -33 -40 -58 -76 -100 -117
Wind_Speed
19 20 21 23 25 27 27 28 28 28 29 30 29 29 30 30 28 24 23 17 20 25 37 32 33 33 34 31 26 25 26 22 24 27 27 29 30 31 31 30 30 28 27 28 29 29 30 18 16 22 26 22 18 14
18 20 22 23 24 25 26 28 30 29 29 30 31 31 29 30 29 26 25 20 15 21 30 40 38 38 21 20 31 26 26 24 23 24 24 25 28 28 31 36 28 33 30 31 29 30 26 24 27 24 26 25 20 16
19 21 21 21 23 25 28 30 30 32 31 32 32 33 30 29 30 25 26 23 24 29 37 25 23 27 5 26 37 28 27 23 23 22 22 24 28 24 29 31 29 29 26 31 31 32 35 32 31 30 24 22 17 11
20 21 21 23 23 24 24 26 27 31 30 30 31 32 30 29 30 26 25 23 20 26 29 26 17 23 23 12 9 20 20 18 23 24 24 25 26 22 26 25 27 25 25 30 34 34 34 35 33 30 24 15 7 3
23 21 23 23 24 23 24 25 23 23 27 29 32 33 32 32 32 28 20 19 10 16 25 31 36 17 23 16 12 20 20 29 26 26 27 27 24 24 24 25 30 25 27 29 33 29 30 28 23 20 15 9 5 2
23 23 24 24 26 26 25 25 25 25 30 28 35 36 31 33 30 26 24 18 9 6 20 23 22 24 23 17 11 12 18 23 26 26 29 27 24 23 26 29 25 24 27 27 27 21 21 11 8 7 7 6 4 2
25 24 24 23 22 23 25 28 29 30 29 37 34 38 35 30 19 16 19 18 12 9 18 22 21 18 19 13 13 13 13 21 23 26 29 28 24 23 25 27 20 20 21 19 18 13 10 6 4 0 2 1 1 1
27 25 24 24 25 26 28 28 33 34 32 32 38 40 37 21 15 13 8 7 10 14 17 20 20 20 18 14 13 11 14 20 22 25 25 29 25 24 28 24 20 15 11 9 9 11 8 2 1 1 1 1 1 2
24 24 25 25 24 26 30 31 34 33 33 29 39 29 19 17 14 16 13 12 3 10 19 17 19 20 18 19 19 16 16 19 20 25 29 25 30 32 29 24 21 17 16 6 4 3 3 4 5 5 5 7 8 7
25 25 25 25 25 26 28 28 27 35 36 33 25 23 21 16 20 18 14 10 10 9 17 25 21 27 22 21 25 21 21 20 13 22 21 36 37 35 35 27 24 21 15 11 19 15 11 10 9 10 14 15 14 12
25 26 27 27 27 28 26 22 24 31 27 25 27 22 21 24 19 13 12 9 10 18 10 19 21 27 20 26 22 18 17 15 16 20 29 32 36 42 42 38 25 25 24 22 19 15 14 13 14 16 15 15 16 14
25 26 27 28 28 26 20 16 18 19 22 25 20 23 17 16 12 11 11 10 14 17 17 18 18 22 21 22 23 21 22 22 21 15 25 28 30 32 37 41 30 23 20 19 14 12 11 11 12 13 16 15 16 15
25 26 25 23 22 19 14 12 13 17 23 18 17 16 15 15 15 13 11 18 19 15 14 18 19 17 18 19 22 18 25 21 17 21 24 23 22 24 25 28 27 21 15 13 11 8 7 9 11 12 13 13 13 13
25 24 22 16 15 11 12 12 16 20 20 21 20 22 15 15 16 18 21 20 20 22 19 17 19 18 16 19 21 22 21 20 19 20 20 18 18 16 15 16 15 16 14 10 6 4 4 7 9 11 12 12 11 11
23 21 17 15 16 15 15 16 18 18 18 17 16 18 15 18 20 20 20 21 21 21 21 19 19 21 20 19 19 21 20 21 20 17 16 16 13 9 6 6 8 10 8 6 3 2 5 7 9 11 12 12 11 11
21 19 16 14 15 14 16 16 16 15 15 14 12 18 20 22 20 21 21 21 21 22 19 19 17 17 18 18 19 21 19 17 17 18 17 17 9 4 5 7 8 6 5 2 2 4 7 9 10 11 12 13 13 13
18 15 17 17 18 18 17 14 15 15 14 15 15 11 23 25 24 22 22 21 19 18 17 17 16 15 16 17 17 16 16 16 16 16 15 12 13 6 5 5 7 4 2 3 5 7 8 10 11 12 12 13 14 14
14 14 17 17 21 19 17 14 15 15 16 14 18 19 18 21 24 24 22 21 20 18 17 16 16 16 15 14 13 15 16 15 15 13 10 12 10 6 9 3 10 9 10 6 7 8 9 10 10 11 11 11 11 12
14 14 16 17 17 18 17 15 13 16 16 16 16 21 23 24 25 26 25 23 21 20 19 17 16 14 14 13 14 15 14 15 15 14 11 11 11 11 8 3 3 9 5 6 7 9 9 10 9 9 9 10 11 13
15 15 16 14 14 16 15 14 14 14 13 17 20 20 21 23 23 23 23 23 21 20 19 18 17 15 14 13 14 14 14 14 14 10 13 12 11 8 6 6 7 6 6 6 7 8 9 10 9 9 9 9 12 14
16 16 17 16 15 14 15 14 12 12 13 14 16 17 17 18 18 18 17 17 18 19 20 20 18 16 13 12 13 13 13 11 8 11 13 9 11 12 10 11 9 8 6 6 7 8 9 10 9 8 8 9 11 13
15 17 16 15 15 13 13 12 11 12 14 15 15 15 14 13 12 13 14 15 16 17 18 20 22 21 20 19 18 16 15 16 13 12 11 10 9 12 14 10 9 8 7 7 8 9 10 10 10 9 8 8 10 12
16 16 16 16 10 13 13 14 14 15 15 15 14 14 14 14 12 13 13 13 15 15 17 17 17 19 23 23 22 20 18 14 20 18 15 13 12 13 12 11 11 9 8 9 11 12 13 10 8 8 8 8 9 11
17 17 17 16 15 15 15 15 15 15 15 15 15 14 14 14 13 12 12 12 12 13 13 13 14 15 17 18 18 18 19 19 19 25 24 19 16 15 14 14 14 15 16 15 12 13 15 12 8 7 7 7 9 10
17 16 15 15 15 15 15 15 15 15 13 14 14 14 14 14 12 12 13 13 11 11 14 17 19 20 21 21 21 20 19 19 19 17 18 19 20 20 20 19 19 19 16 13 9 9 12 11 9 8 7 7 8 9
16 16 17 15 15 16 15 14 13 13 14 14 14 14 15 16 16 16 16 16 14 16 19 21 22 23 24 24 24 25 24 21 21 23 23 21 20 22 23 23 23 21 16 14 11 8 9 12 11 9 8 7 7 9
16 16 17 18 16 16 16 15 15 16 16 15 13 13 13 14 14 15 15 15 16 19 19 19 19 19 21 23 26 24 21 17 19 21 21 21 22 22 23 24 23 21 17 15 13 10 11 12 13 11 12 13 11 10
16 16 17 16 17 16 16 16 17 17 16 13 12 11 10 12 12 12 12 15 18 18 16 14 13 12 14 19 19 18 15 15 18 19 22 24 24 23 23 22 21 21 20 17 14 11 9 8 10 12 15 19 18 17
16 16 16 16 17 18 19 19 18 17 15 12 13 12 12 14 9 9 13 13 13 12 12 11 11 12 11 11 12 12 13 12 13 16 17 16 15 17 18 19 20 20 19 18 17 12 4 12 21 22 22 21 20 20
16 16 16 16 17 18 17 19 16 15 15 12 13 12 9 7 7 7 7 5 8 10 10 11 11 11 11 10 11 11 16 13 12 16 15 15 16 16 16 16 17 17 16 13 12 11 13 20 24 31 30 26 22 21
16 17 17 16 16 16 16 14 13 14 16 14 14 11 9 10 9 12 13 6 5 5 7 9 12 12 15 13 13 12 11 12 16 20 23 20 16 16 16 16 16 16 15 15 13 14 14 18 22 23 22 26 28 27
18 18 15 14 14 14 13 13 13 14 15 15 14 13 9 9 5 9 15 8 6 7 8 11 11 10 14 14 12 13 13 13 13 17 22 22 20 18 17 15 15 15 16 17 16 17 17 16 17 21 20 18 21 24
16 16 15 14 13 12 12 11 11 13 19 18 8 6 6 7 9 6 3 6 8 3 0 4 9 11 10 11 11 13 14 15 15 17 19 21 20 19 17 17 18 20 21 22 22 23 22 19 18 18 18 17 18 19
Wind_Direction
346 347 348 348 349 350 351 348 349 350 350 350 351 351 349 349 350 354 352 2 347 324 298 255 270 274 269 273 273 280 278 267 265 256 255 252 251 247 248 247 246 248 251 257 260 262 267 282 284 267 276 288 296 297
342 344 345 345 346 347 347 345 343 346 347 344 344 345 346 343 343 344 341 349 350 328 304 286 256 243 215 278 273 275 268 271 266 263 260 260 255 252 249 246 252 250 257 259 261 266 276 278 272 282 281 284 292 295
336 340 341 341 343 343 342 341 340 338 341 339 338 338 341 340 338 341 335 339 335 322 305 308 309 289 197 206 227 267 270 266 264 268 268 263 256 257 249 250 253 256 263 263 267 270 271 274 276 275 286 287 296 297
335 335 338 339 341 342 345 345 342 337 338 340 338 338 339 337 334 337 333 335 336 322 311 308 316 299 301 295 255 195 265 277 268 266 262 260 259 262 257 259 257 262 263 265 267 272 276 275 273 276 279 284 288 302
338 335 335 336 338 340 343 345 346 346 343 340 337 336 336 333 330 335 336 331 322 323 307 300 281 304 310 297 278 265 254 258 262 259 255 256 265 265 264 265 260 263 265 265 268 277 279 280 279 270 267 257 246 215
340 339 338 339 339 339 339 343 343 344 339 339 331 331 336 329 334 342 345 355 5 351 325 310 311 304 308 312 298 273 257 257 254 256 254 258 264 265 261 260 267 267 269 270 277 282 286 289 289 279 246 232 238 237
343 342 341 344 345 343 340 339 338 339 341 329 333 325 329 331 343 349 348 353 19 19 333 315 305 315 322 329 307 288 257 257 253 252 251 253 259 261 261 258 266 272 272 273 271 277 265 268 276 286 129 142 272 320
346 346 345 344 343 342 338 338 332 331 337 335 327 320 312 346 2 358 360 27 30 354 331 309 303 311 322 308 301 294 269 254 253 252 253 248 255 257 253 256 259 265 269 275 279 273 260 270 322 12 28 26 319 315
350 348 345 344 345 343 340 337 335 335 336 343 320 334 352 359 5 6 22 25 97 354 320 315 306 297 304 280 275 275 266 257 257 250 245 246 244 244 243 249 245 248 257 256 305 318 291 276 284 287 297 299 299 297
348 347 347 345 344 341 339 342 346 328 332 339 341 336 337 5 344 351 10 21 13 1 312 285 297 261 262 262 252 255 253 257 273 258 252 240 242 241 238 245 246 253 255 261 252 270 282 283 291 289 286 293 295 296
348 347 346 345 343 342 344 349 349 340 345 347 329 336 339 336 342 8 15 51 60 213 122 208 217 242 270 240 244 263 269 275 273 257 236 239 243 234 233 234 248 252 249 255 265 264 274 278 280 282 290 297 296 298
343 343 344 343 343 344 354 2 2 4 354 341 343 340 1 2 15 21 41 81 145 215 211 224 219 220 235 240 234 240 236 219 246 253 236 242 244 242 237 234 242 251 252 250 266 271 281 282 291 297 292 303 304 303
341 341 344 348 350 356 6 14 18 8 355 9 7 10 9 351 327 12 6 242 232 215 222 279 263 277 264 259 240 255 211 239 260 241 241 248 253 247 244 236 240 242 246 249 264 270 286 298 310 312 310 318 319 312
343 345 348 356 2 8 15 25 15 6 5 348 341 313 347 330 325 308 262 261 271 251 257 268 267 266 275 257 240 231 239 232 241 240 243 260 260 253 246 240 227 226 227 230 244 271 310 323 325 324 317 317 323 325
348 351 359 9 18 24 23 15 10 11 10 360 354 325 337 303 299 296 287 270 280 277 265 251 254 249 245 245 244 215 233 231 234 247 263 258 256 250 235 212 192 190 185 190 213 295 321 330 333 329 327 328 328 320
354 359 17 24 27 25 14 13 12 14 15 16 10 327 306 281 292 289 278 273 281 284 256 239 244 245 252 248 237 217 218 229 241 241 235 224 230 203 139 145 149 164 173 191 282 315 322 322 325 328 327 320 317 318
1 12 14 15 8 4 5 13 16 10 10 359 350 15 284 272 266 274 279 269 278 277 258 245 252 244 239 248 238 248 245 249 242 239 226 212 202 190 174 169 194 198 251 289 308 317 325 326 324 323 321 319 322 323
13 15 13 11 3 8 13 22 10 5 354 356 331 320 322 292 275 269 274 270 272 265 253 245 252 258 249 254 251 248 247 242 239 234 238 235 244 241 242 264 256 260 266 308 327 334 337 331 335 330 336 341 346 341
15 16 11 13 14 12 11 18 23 358 357 351 345 309 280 267 261 251 254 255 252 257 249 245 240 249 265 273 268 257 262 250 233 241 260 249 244 244 262 308 287 247 287 329 329 332 344 347 350 346 349 350 352 346
13 16 15 27 28 17 20 22 24 23 30 351 300 263 267 264 262 259 251 251 254 255 249 249 259 270 273 280 283 286 287 267 249 247 218 234 241 250 264 280 289 295 313 341 359 4 358 359 341 329 336 341 345 343
9 17 19 21 25 30 21 31 59 63 191 207 236 262 258 264 263 259 253 256 254 251 259 257 259 262 271 279 270 288 277 287 289 265 249 265 252 254 266 263 273 278 300 322 4 5 344 336 338 350 353 351 354 359
16 15 17 28 31 44 51 75 105 181 176 206 240 249 232 233 238 243 242 246 253 262 263 260 259 258 257 262 261 272 276 270 274 284 283 277 274 252 245 268 277 291 315 335 345 350 355 5 10 14 18 16 6 8
16 17 16 22 355 310 112 60 168 146 202 220 222 222 220 227 241 238 243 252 260 275 276 273 273 267 259 269 269 271 261 274 264 272 273 281 284 271 270 278 285 308 326 322 314 317 324 342 359 2 9 15 10 8
1 350 342 245 198 219 212 183 159 193 204 209 208 211 213 220 236 243 254 265 270 280 295 302 307 303 296 291 287 275 266 267 276 248 252 269 276 282 287 290 291 288 291 297 309 315 314 325 348 355 1 2 357 354
287 262 242 216 193 199 188 193 189 195 209 217 214 215 224 212 250 250 240 235 261 271 287 292 296 301 298 293 293 289 284 279 276 281 276 272 273 277 278 279 282 287 299 311 316 327 325 329 339 351 3 7 356 350
225 207 196 201 197 192 196 200 205 206 199 194 189 191 189 186 187 195 188 204 215 263 278 276 267 263 262 267 278 282 284 285 280 275 275 276 280 280 279 280 282 285 298 310 311 317 323 306 303 307 325 347 356 343
208 202 198 195 199 198 195 192 188 181 173 173 184 187 187 181 183 194 214 228 241 264 264 254 244 240 241 246 264 285 293 293 290 287 284 280 278 280 281 280 280 284 296 305 311 311 308 300 298 294 298 300 314 324
200 199 194 197 192 191 188 184 176 171 172 176 179 185 194 185 183 208 230 252 261 258 255 240 216 196 205 248 314 320 320 310 298 289 278 274 275 279 280 282 284 286 285 290 299 301 296 305 312 302 296 288 294 297
190 191 191 190 188 182 177 175 174 173 173 182 164 157 145 147 169 231 251 252 255 233 225 222 187 138 139 144 116 70 4 332 308 291 282 284 289 279 277 274 275 277 275 276 283 294 288 281 267 266 276 289 292 292
185 185 181 179 174 171 173 169 177 178 168 174 176 180 200 163 148 141 128 159 231 243 212 194 177 139 131 149 160 128 12 104 125 272 279 280 283 281 274 275 275 278 279 285 297 303 292 273 271 252 257 267 295 292
188 184 182 179 175 178 177 183 180 169 160 148 143 172 182 147 128 101 99 147 179 224 207 183 163 134 97 128 117 156 172 214 194 196 207 246 265 269 274 281 282 279 276 281 291 293 297 280 266 268 273 268 272 282
182 182 188 193 190 193 193 180 163 156 145 136 131 141 176 169 187 120 103 116 128 126 133 133 130 134 106 94 131 170 164 171 204 204 193 193 222 238 255 268 274 278 277 281 282 285 285 289 289 276 285 303 304 300
185 189 193 194 199 209 217 215 190 165 119 114 144 298 294 300 316 296 174 135 116 103 267 156 127 118 126 122 140 157 157 155 164 162 164 169 184 204 222 226 228 228 228 231 239 251 274 287 294 298 305 314 316 322